EW4907 Weather Reports


Display with metric or nautical units.
time (UTC)temp
F
wind
direction
speed
MPH
gust
MPH
rain 1hr
in
rain 24hr
in
rain mn
in
humidity
%
barometer
mb
20260905114550 74 214 1.0 4.0 0.00 0.00 0.00 93 1013.3
20260905113044 74 191 1.0 3.0 0.00 0.00 0.00 93 1013.2
20260905111545 74 170 1.0 3.0 0.00 0.00 0.00 93 1013.1
20260905110042 74 176 1.0 2.0 0.00 0.00 0.00 93 1013.1
20260905104549 74 148 1.0 2.0 0.00 0.00 0.00 92 1013.1
20260905103040 74 213 0.0 2.0 0.00 0.00 0.00 92 1013.0
20260905101540 75 170 1.0 2.0 0.00 0.00 0.00 92 1012.9
20260905100038 75 212 1.0 3.0 0.00 0.00 0.00 92 1012.9
20260905094538 75 202 1.0 4.0 0.00 0.00 0.00 92 1012.8
20260905093040 75 229 2.0 6.0 0.00 0.00 0.00 91 1012.6
20260905091537 75 198 3.0 6.0 0.00 0.00 0.00 91 1012.9
20260905090044 75 208 3.0 6.0 0.00 0.00 0.00 91 1012.8
20260905084534 75 190 3.0 6.0 0.00 0.00 0.00 90 1012.9
20260905083040 76 173 4.0 7.0 0.00 0.00 0.00 89 1013.0
20260905081529 76 150 3.0 7.0 0.00 0.00 0.00 89 1013.1
20260905080033 76 188 4.0 8.0 0.00 0.00 0.00 88 1013.2
20260905074525 76 180 3.0 8.0 0.00 0.00 0.00 88 1013.3
20260905073026 76 127 3.0 6.0 0.00 0.00 0.00 87 1013.4
20260905071525 77 166 3.0 9.0 0.00 0.00 0.00 86 1013.4
20260905070019 77 152 3.0 8.0 0.00 0.00 0.00 86 1013.4
20260905064516 77 169 3.0 7.0 0.00 0.00 0.00 85 1013.5
20260905063014 77 136 4.0 7.0 0.00 0.00 0.00 84 1013.7
20260905061515 78 162 4.0 9.0 0.00 0.00 0.00 83 1013.7
20260905060012 78 155 4.0 8.0 0.00 0.00 0.00 83 1013.5
20260905054608 78 180 4.0 8.0 0.00 0.00 0.00 82 1013.7
20260905053006 78 129 3.0 8.0 0.00 0.00 0.00 81 1013.6
20260905051508 78 138 4.0 8.0 0.00 0.00 0.00 80 1013.7
20260905050000 79 129 2.0 7.0 0.00 0.00 0.00 79 1013.9
20260905044602 79 206 3.0 7.0 0.00 0.00 0.00 78 1013.8
20260905043058 79 148 4.0 9.0 0.00 0.00 0.00 77 1013.8
20260905041557 79 210 3.0 9.0 0.00 0.00 0.00 77 1013.7
20260905034556 80 159 2.0 7.0 0.00 0.00 0.00 74 1013.7
20260905033059 80 142 4.0 6.0 0.00 0.00 0.00 72 1013.6
20260905031601 80 120 4.0 8.0 0.00 0.00 0.00 71 1013.6
20260905030051 81 114 3.0 6.0 0.00 0.00 0.00 70 1013.5
20260905024551 81 105 4.0 7.0 0.00 0.00 0.00 69 1013.3
20260905023049 81 141 3.0 6.0 0.00 0.00 0.00 69 1013.0
20260905021550 81 112 3.0 6.0 0.00 0.00 0.00 68 1012.9
20260905020048 82 134 1.0 6.0 0.00 0.00 0.00 67 1012.8
20260905014548 82 134 3.0 8.0 0.00 0.00 0.00 66 1012.8
20260905013048 83 112 3.0 8.0 0.00 0.00 0.00 65 1012.7
20260905011552 83 102 3.0 9.0 0.00 0.00 0.00 64 1012.5
20260905004544 85 136 6.0 13.0 0.00 0.00 0.00 61 1012.3
20260905003044 86 149 4.0 11.0 0.00 0.00 0.00 60 1012.2
20260905001552 88 118 5.0 13.0 0.00 0.00 0.00 59 1012.1
20260905000057 89 130 8.0 14.0 0.00 0.00 0.00 53 1011.8
20260904234542 90 143 5.0 11.0 0.00 0.00 0.00 49 1011.5
20260904233042 90 156 6.0 11.0 0.00 0.00 0.00 45 1011.5
20260904231548 91 149 4.0 10.0 0.00 0.00 0.00 43 1011.6
20260904230052 91 155 4.0 12.0 0.00 0.00 0.00 44 1011.8
20260904224536 91 96 5.0 10.0 0.00 0.00 0.00 49 1011.8
20260904223042 89 127 3.0 13.0 0.00 0.00 0.00 49 1011.9
20260904221535 91 198 7.0 11.0 0.00 0.00 0.00 49 1012.0
20260904220034 90 148 8.0 14.0 0.00 0.00 0.00 52 1012.0
20260904214533 89 106 5.0 13.0 0.00 0.00 0.00 56 1012.1
20260904213033 90 221 6.0 15.0 0.00 0.00 0.00 52 1012.3
20260904211530 90 208 6.0 17.0 0.00 0.00 0.00 50 1012.5
20260904210031 90 193 5.0 12.0 0.00 0.00 0.00 52 1012.5
20260904204524 89 115 4.0 15.0 0.00 0.00 0.00 57 1012.8
20260904203024 89 245 4.0 12.0 0.00 0.00 0.00 58 1012.9
20260904201523 89 120 5.0 8.0 0.00 0.00 0.00 59 1013.0
20260904200042 87 160 3.0 8.0 0.00 0.00 0.00 62 1013.2
20260904194519 87 174 2.0 9.0 0.00 0.00 0.00 63 1013.3
20260904193020 87 155 3.0 12.0 0.00 0.00 0.00 63 1013.4
20260904191520 88 191 4.0 9.0 0.00 0.00 0.00 64 1013.5
20260904190016 85 121 3.0 11.0 0.00 0.00 0.00 69 1013.9
20260904184514 86 139 5.0 11.0 0.00 0.00 0.00 68 1014.0
20260904183010 85 199 1.0 7.0 0.00 0.00 0.00 72 1014.2
20260904181510 84 155 5.0 11.0 0.00 0.00 0.00 71 1014.3
20260904180008 84 207 4.0 10.0 0.00 0.00 0.00 72 1014.4
20260904174510 84 198 3.0 9.0 0.00 0.00 0.00 72 1014.6
20260904173006 83 131 2.0 9.0 0.00 0.00 0.00 75 1014.7
20260904171501 83 195 4.0 11.0 0.00 0.00 0.00 74 1014.7
20260904170058 82 215 5.0 11.0 0.00 0.00 0.00 76 1014.6
20260904164556 82 211 4.0 10.0 0.00 0.00 0.00 78 1014.5
20260904163056 81 186 2.0 10.0 0.00 0.00 0.00 79 1014.4
20260904161601 80 243 6.0 11.0 0.00 0.00 0.00 80 1014.4
20260904160049 80 199 5.0 12.0 0.00 0.00 0.00 82 1014.4
20260904154547 80 213 3.0 10.0 0.00 0.00 0.00 83 1014.5
20260904153047 80 186 5.0 11.0 0.00 0.00 0.00 83 1014.5
20260904151541 80 213 3.0 7.0 0.00 0.00 0.00 84 1014.5
20260904150038 79 222 3.0 8.0 0.00 0.00 0.00 85 1014.6
20260904144535 79 231 3.0 7.0 0.00 0.00 0.00 87 1014.8
20260904143032 78 163 4.0 10.0 0.00 0.00 0.00 88 1014.5
20260904141533 78 160 3.0 5.0 0.00 0.00 0.00 89 1014.5
20260904140030 78 184 2.0 4.0 0.00 0.00 0.00 90 1014.5
20260904134528 77 187 2.0 5.0 0.00 0.00 0.00 91 1014.4
20260904133026 77 189 1.0 5.0 0.00 0.00 0.00 92 1014.2
20260904131524 77 146 2.0 7.0 0.00 0.00 0.00 92 1014.1
20260904130024 77 155 4.0 8.0 0.00 0.00 0.00 92 1014.0
20260904124526 76 119 4.0 7.0 0.00 0.00 0.00 92 1013.8
20260904123020 76 169 3.0 8.0 0.00 0.00 0.00 92 1013.6
20260904121519 76 141 3.0 9.0 0.00 0.00 0.00 92 1013.5
20260904120018 76 160 3.0 8.0 0.00 0.00 0.00 92 1013.1